#timestamp,LO_Frequency,Hit 
1502082015.0,286047010.0,N
1502082015.9,286047010.0,N
1502082035.8,286047008.6,N
1502082055.6,286047007.3,N
1502082075.4,286047007.0,N
1502082095.3,286047007.4,N
1502082115.1,286047005.0,N
1502082116.0,286047005.0,N
1502082135.8,286047006.6,N
1502082155.6,286047004.6,N
1502082175.5,286047005.0,N
1502082195.3,286047008.4,N
1502082215.1,286047007.9,N
1502082235.9,286047012.3,N
1502082255.7,286047010.6,N
1502082275.5,286047006.4,N
1502082295.4,286047009.2,N
1502082315.2,286047008.6,N
1502082335.0,286047010.2,N
1502082335.9,286047010.2,N
1502082355.8,286047008.8,N
1502082375.6,286047010.7,N
1502082395.4,286047009.1,N
1502082415.3,286047006.5,N
1502082435.1,286047009.2,N
1502082436.0,286047009.2,N
1502082455.8,286047006.1,N
1502082475.6,286047006.1,N
1502082495.5,286047007.0,N
1502082515.3,286047004.6,N
1502082535.1,286047006.6,N
1502082555.9,286047004.5,N
1502082575.7,286047006.9,N
1502082595.5,286047004.6,N
1502082615.4,286047004.5,N
1502082635.2,286047007.3,N
1502082655.0,286047006.1,N
1502082655.9,286047006.1,N
1502082675.8,286047007.2,N
1502082695.6,286047008.8,N
1502082715.4,286047010.8,N
1502082735.3,286047007.2,N
1502082755.1,286047007.1,N
1502082756.0,286047007.1,N
1502082775.8,286047008.0,N
1502082795.7,286047006.1,N
1502082815.5,286047008.5,N
1502082835.3,286047008.1,N
1502082855.1,286047008.5,N
1502082875.9,286047005.1,N
1502082895.7,286047008.4,N
1502082915.5,286047006.4,N
1502082935.4,286047006.9,N
1502082955.2,286047006.6,N
1502082975.0,286047007.8,N
1502082975.9,286047007.8,N
1502082995.8,286047009.4,N
1502083015.6,286047008.6,N
1502083035.4,286047008.7,N
1502083055.3,286047007.8,N
1502083075.1,286047006.2,N
1502083076.0,286047006.2,N
1502083095.8,286047007.8,N
1502083115.7,286047006.1,N
1502083135.5,286047005.3,N
1502083155.3,286047005.6,N
1502083175.1,286047007.6,N
1502083195.9,286047006.5,N
1502083215.7,286047007.4,N
1502083235.5,286047005.9,N
1502083255.4,286047007.1,N
1502083275.2,286047006.5,N
1502083295.0,286047004.8,N
1502083295.9,286047004.8,N
1502083315.8,286047003.9,N
1502083335.6,286047001.4,N
1502083355.4,286047003.3,N
1502083375.3,286047005.8,N
1502083395.1,286047005.7,N
1502083396.0,286047005.7,N
1502083415.8,286047002.9,N
1502083435.7,286047003.3,N
1502083455.5,286047001.4,N
1502083475.3,286047005.1,N
1502083495.1,286047002.5,N
1502083515.9,286047002.7,N
1502083535.7,286047003.4,N
1502083555.5,286047003.0,N
1502083575.4,286047005.8,N
1502083595.2,286047001.4,N
1502083615.0,286046999.9,N
1502083615.9,286046999.9,N
1502083635.8,286047000.2,N
1502083655.6,286047002.1,N
1502083675.4,286047004.0,N
1502083695.3,286047002.7,N
1502083715.1,286046995.0,N
1502083716.0,286046995.0,N
1502083735.8,286046995.3,N
1502083755.7,286046997.3,N
1502083775.5,286046998.0,N
1502083795.3,286046998.8,N
1502083815.1,286047000.9,N
1502083835.9,286046998.1,N
1502083855.7,286046997.4,N
1502083875.5,286046996.9,N
1502083895.4,286046996.8,N
1502083915.2,286046996.1,N
1502083935.0,286046997.9,N
1502083935.9,286046997.9,N
1502083955.8,286046999.5,N
1502083975.6,286046996.9,N
1502083995.4,286046994.9,N
1502084015.3,286046997.0,N
1502084035.1,286046995.8,N
1502084036.0,286046995.8,N
1502084055.8,286046992.4,N
1502084075.7,286046993.1,N
1502084095.5,286046990.6,N
1502084115.3,286046994.7,N
1502084135.1,286046991.7,N
1502084155.9,286046991.9,N
1502084175.7,286046993.5,N
1502084195.5,286046990.6,N
1502084215.4,286046993.1,N
1502084235.2,286046992.8,N
1502084255.0,286046994.4,N
1502084255.9,286046994.4,N
1502084275.8,286046995.9,N
1502084295.6,286046995.9,N
1502084315.4,286046992.1,N
1502084335.3,286046990.6,N
1502084355.1,286046990.6,N
1502084356.0,286046990.6,N
1502084375.8,286046990.2,N
1502084395.7,286046990.5,N
1502084415.5,286046992.0,N
1502084435.3,286046993.1,N
1502084455.1,286046992.8,N
1502084475.9,286046993.2,N
1502084495.7,286046993.1,N
1502084515.5,286046994.7,N
1502084535.4,286046991.5,N
1502084555.2,286046990.2,N
1502084575.0,286046989.2,N
1502084575.9,286046989.2,N
1502084595.8,286046990.1,N
1502084615.6,286046990.9,N
1502084635.4,286046992.6,N
1502084655.3,286046990.9,N
1502084675.1,286046992.7,N
1502084676.0,286046992.7,N
1502084695.8,286046991.1,N
1502084715.7,286046988.1,N
1502084735.5,286046987.9,N
1502084755.3,286046987.3,N
1502084775.1,286046985.6,N
1502084795.9,286046986.8,N
1502084815.7,286046984.5,N
1502084835.5,286046984.2,N
1502084855.4,286046987.4,N
1502084875.2,286046988.2,N
1502084895.0,286046985.5,N
1502084895.9,286046985.5,N
1502084915.8,286046985.8,N
1502084935.6,286046988.1,N
1502084955.4,286046987.1,N
1502084975.3,286046987.2,N
1502084995.1,286046987.5,N
1502084996.0,286046987.5,N
1502085015.8,286046988.2,N
1502085035.7,286046986.8,N
1502085055.5,286046984.8,N
1502085075.3,286046984.2,N
1502085095.2,286046986.8,N
1502085115.9,286046986.8,N
1502085135.7,286046982.4,N
1502085155.5,286046982.2,N
1502085175.4,286046982.9,N
1502085195.2,286046981.6,N
1502085215.0,286046983.5,N
1502085215.9,286046983.5,N
1502085235.8,286046978.9,N
1502085255.6,286046980.8,N
1502085275.4,286046980.2,N
1502085295.3,286046977.3,N
1502085315.1,286046978.4,N
1502085316.0,286046978.4,N
1502085335.8,286046980.3,N
1502085355.7,286046977.9,N
1502085375.5,286046978.7,N
1502085395.3,286046978.2,N
1502085415.2,286046978.0,N
1502085435.9,286046978.3,N
1502085455.7,286046974.3,N
1502085475.6,286046973.2,N
1502085495.4,286046973.7,N
1502085515.2,286046975.0,N
1502085535.0,286046974.5,N
1502085535.9,286046974.5,N
1502085555.8,286046972.9,N
1502085575.6,286046975.4,N
1502085595.4,286046973.5,N
